sat.trackr.live / text

‹ back to catalog

STARLINK-6182

NORAD 56878 · 2023-083C

PAYLOAD ACTIVE UNKNOWN

§ Identity

Operator
Country
US
Launch date
2023-06-12
Launch site
AFETR
Launch vehicle
Mass (kg)
RCS (m²)

Purposes: comms

External: N2YO · Heavens-Above · Gunter

§ Orbital elements

Epoch: 2026-05-25T00:57:01.624032Z

Period
94.27 min
Inclination
43.0045°
Eccentricity
0.0001382
Mean motion
15.27578140 rev/d
Perigee alt
482.1 km
Apogee alt
484.0 km
Semi-major
6,861.2 km
B*
3.5706e-5
RAAN
14.3154°
Arg perigee
264.5219°
Mean anomaly
95.5475°
Rev number
16,330

§ Raw data

STARLINK-61821 56878U 23083C   26145.03960213  .00000720  00000+0  35706-4 0  99952 56878  43.0045  14.3154 0001382 264.5219  95.5475 15.27578140163301

JSON: /api/v1/satellites/56878 · /tle

For live sub-satellite position, see the globe view (requires WebGL).

§ Visibility from observer

Set your observer location to see the next 7 days of passes ≥ 10°. The values pass through the URL so the page stays shareable.

No JS? Fill the form by hand. The geolocation button needs JavaScript.